Index of /20260426/WXO-DD/model_rdps/10km/12/015
Name Last modified Size Description
Parent Directory -
20260426T12Z_MSC_RDPS_AbsoluteVorticity_IsbL-0250_RLatLon0.09_PT015H.grib2 2026-04-26 14:44 616K
20260426T12Z_MSC_RDPS_AbsoluteVorticity_IsbL-0500_RLatLon0.09_PT015H.grib2 2026-04-26 14:44 564K
20260426T12Z_MSC_RDPS_AbsoluteVorticity_IsbL-0700_RLatLon0.09_PT015H.grib2 2026-04-26 14:44 624K
20260426T12Z_MSC_RDPS_AbsoluteVorticity_IsbL-0850_RLatLon0.09_PT015H.grib2 2026-04-26 14:44 780K
20260426T12Z_MSC_RDPS_AirTemp_AGL-120m_RLatLon0.09_PT015H.grib2 2026-04-26 14:44 388K
20260426T12Z_MSC_RDPS_AirTemp_AGL-2m_RLatLon0.09_PT015H.grib2 2026-04-26 14:44 625K
20260426T12Z_MSC_RDPS_AirTemp_AGL-40m_RLatLon0.09_PT015H.grib2 2026-04-26 14:44 401K
20260426T12Z_MSC_RDPS_AirTemp_AGL-80m_RLatLon0.09_PT015H.grib2 2026-04-26 14:44 393K
20260426T12Z_MSC_RDPS_AirTemp_IsbL-0001_RLatLon0.09_PT015H.grib2 2026-04-26 14:44 251K
20260426T12Z_MSC_RDPS_AirTemp_IsbL-0005_RLatLon0.09_PT015H.grib2 2026-04-26 14:44 290K
20260426T12Z_MSC_RDPS_AirTemp_IsbL-0010_RLatLon0.09_PT015H.grib2 2026-04-26 14:44 302K
20260426T12Z_MSC_RDPS_AirTemp_IsbL-0020_RLatLon0.09_PT015H.grib2 2026-04-26 14:44 318K
20260426T12Z_MSC_RDPS_AirTemp_IsbL-0030_RLatLon0.09_PT015H.grib2 2026-04-26 14:44 339K
20260426T12Z_MSC_RDPS_AirTemp_IsbL-0050_RLatLon0.09_PT015H.grib2 2026-04-26 14:44 316K
20260426T12Z_MSC_RDPS_AirTemp_IsbL-0100_RLatLon0.09_PT015H.grib2 2026-04-26 14:44 420K
20260426T12Z_MSC_RDPS_AirTemp_IsbL-0150_RLatLon0.09_PT015H.grib2 2026-04-26 14:44 417K
20260426T12Z_MSC_RDPS_AirTemp_IsbL-0175_RLatLon0.09_PT015H.grib2 2026-04-26 14:44 411K
20260426T12Z_MSC_RDPS_AirTemp_IsbL-0200_RLatLon0.09_PT015H.grib2 2026-04-26 14:44 421K
20260426T12Z_MSC_RDPS_AirTemp_IsbL-0225_RLatLon0.09_PT015H.grib2 2026-04-26 14:44 423K
20260426T12Z_MSC_RDPS_AirTemp_IsbL-0250_RLatLon0.09_PT015H.grib2 2026-04-26 14:44 429K
20260426T12Z_MSC_RDPS_AirTemp_IsbL-0275_RLatLon0.09_PT015H.grib2 2026-04-26 14:44 406K
20260426T12Z_MSC_RDPS_AirTemp_IsbL-0300_RLatLon0.09_PT015H.grib2 2026-04-26 14:44 412K
20260426T12Z_MSC_RDPS_AirTemp_IsbL-0350_RLatLon0.09_PT015H.grib2 2026-04-26 14:44 423K
20260426T12Z_MSC_RDPS_AirTemp_IsbL-0400_RLatLon0.09_PT015H.grib2 2026-04-26 14:44 424K
20260426T12Z_MSC_RDPS_AirTemp_IsbL-0450_RLatLon0.09_PT015H.grib2 2026-04-26 14:44 433K
20260426T12Z_MSC_RDPS_AirTemp_IsbL-0500_RLatLon0.09_PT015H.grib2 2026-04-26 14:44 410K
20260426T12Z_MSC_RDPS_AirTemp_IsbL-0550_RLatLon0.09_PT015H.grib2 2026-04-26 14:44 429K
20260426T12Z_MSC_RDPS_AirTemp_IsbL-0600_RLatLon0.09_PT015H.grib2 2026-04-26 14:44 447K
20260426T12Z_MSC_RDPS_AirTemp_IsbL-0650_RLatLon0.09_PT015H.grib2 2026-04-26 14:44 459K
20260426T12Z_MSC_RDPS_AirTemp_IsbL-0700_RLatLon0.09_PT015H.grib2 2026-04-26 14:44 483K
20260426T12Z_MSC_RDPS_AirTemp_IsbL-0750_RLatLon0.09_PT015H.grib2 2026-04-26 14:44 409K
20260426T12Z_MSC_RDPS_AirTemp_IsbL-0800_RLatLon0.09_PT015H.grib2 2026-04-26 14:44 467K
20260426T12Z_MSC_RDPS_AirTemp_IsbL-0850_RLatLon0.09_PT015H.grib2 2026-04-26 14:44 506K
20260426T12Z_MSC_RDPS_AirTemp_IsbL-0875_RLatLon0.09_PT015H.grib2 2026-04-26 14:44 517K
20260426T12Z_MSC_RDPS_AirTemp_IsbL-0900_RLatLon0.09_PT015H.grib2 2026-04-26 14:44 522K
20260426T12Z_MSC_RDPS_AirTemp_IsbL-0925_RLatLon0.09_PT015H.grib2 2026-04-26 14:44 521K
20260426T12Z_MSC_RDPS_AirTemp_IsbL-0950_RLatLon0.09_PT015H.grib2 2026-04-26 14:44 522K
20260426T12Z_MSC_RDPS_AirTemp_IsbL-0970_RLatLon0.09_PT015H.grib2 2026-04-26 14:44 521K
20260426T12Z_MSC_RDPS_AirTemp_IsbL-0985_RLatLon0.09_PT015H.grib2 2026-04-26 14:44 518K
20260426T12Z_MSC_RDPS_AirTemp_IsbL-1000_RLatLon0.09_PT015H.grib2 2026-04-26 14:44 487K
20260426T12Z_MSC_RDPS_AirTemp_IsbL-1015_RLatLon0.09_PT015H.grib2 2026-04-26 14:44 482K
20260426T12Z_MSC_RDPS_Albedo_Sfc_RLatLon0.09_PT015H.grib2 2026-04-26 14:44 166K
20260426T12Z_MSC_RDPS_CAPE_Sfc_RLatLon0.09_PT015H.grib2 2026-04-26 14:44 1.7M
20260426T12Z_MSC_RDPS_CIN_Sfc_RLatLon0.09_PT015H.grib2 2026-04-26 14:44 1.2M
20260426T12Z_MSC_RDPS_CloudWater_EAtm_RLatLon0.09_PT015H.grib2 2026-04-26 14:44 218K
20260426T12Z_MSC_RDPS_ConvectivePrecip-Accum_Sfc_RLatLon0.09_PT015H.grib2 2026-04-26 14:44 775K
20260426T12Z_MSC_RDPS_DewPointDepression_AGL-2m_RLatLon0.09_PT015H.grib2 2026-04-26 14:44 392K
20260426T12Z_MSC_RDPS_DewPointDepression_IsbL-0001_RLatLon0.09_PT015H.grib2 2026-04-26 14:44 193
20260426T12Z_MSC_RDPS_DewPointDepression_IsbL-0005_RLatLon0.09_PT015H.grib2 2026-04-26 14:44 193
20260426T12Z_MSC_RDPS_DewPointDepression_IsbL-0010_RLatLon0.09_PT015H.grib2 2026-04-26 14:44 193
20260426T12Z_MSC_RDPS_DewPointDepression_IsbL-0020_RLatLon0.09_PT015H.grib2 2026-04-26 14:44 193
20260426T12Z_MSC_RDPS_DewPointDepression_IsbL-0030_RLatLon0.09_PT015H.grib2 2026-04-26 14:44 193
20260426T12Z_MSC_RDPS_DewPointDepression_IsbL-0050_RLatLon0.09_PT015H.grib2 2026-04-26 14:44 89K
20260426T12Z_MSC_RDPS_DewPointDepression_IsbL-0100_RLatLon0.09_PT015H.grib2 2026-04-26 14:44 126K
20260426T12Z_MSC_RDPS_DewPointDepression_IsbL-0150_RLatLon0.09_PT015H.grib2 2026-04-26 14:44 153K
20260426T12Z_MSC_RDPS_DewPointDepression_IsbL-0175_RLatLon0.09_PT015H.grib2 2026-04-26 14:44 188K
20260426T12Z_MSC_RDPS_DewPointDepression_IsbL-0200_RLatLon0.09_PT015H.grib2 2026-04-26 14:44 230K
20260426T12Z_MSC_RDPS_DewPointDepression_IsbL-0225_RLatLon0.09_PT015H.grib2 2026-04-26 14:44 270K
20260426T12Z_MSC_RDPS_DewPointDepression_IsbL-0250_RLatLon0.09_PT015H.grib2 2026-04-26 14:44 310K
20260426T12Z_MSC_RDPS_DewPointDepression_IsbL-0275_RLatLon0.09_PT015H.grib2 2026-04-26 14:44 319K
20260426T12Z_MSC_RDPS_DewPointDepression_IsbL-0300_RLatLon0.09_PT015H.grib2 2026-04-26 14:44 338K
20260426T12Z_MSC_RDPS_DewPointDepression_IsbL-0350_RLatLon0.09_PT015H.grib2 2026-04-26 14:44 339K
20260426T12Z_MSC_RDPS_DewPointDepression_IsbL-0400_RLatLon0.09_PT015H.grib2 2026-04-26 14:44 351K
20260426T12Z_MSC_RDPS_DewPointDepression_IsbL-0450_RLatLon0.09_PT015H.grib2 2026-04-26 14:44 362K
20260426T12Z_MSC_RDPS_DewPointDepression_IsbL-0500_RLatLon0.09_PT015H.grib2 2026-04-26 14:44 366K
20260426T12Z_MSC_RDPS_DewPointDepression_IsbL-0550_RLatLon0.09_PT015H.grib2 2026-04-26 14:44 375K
20260426T12Z_MSC_RDPS_DewPointDepression_IsbL-0600_RLatLon0.09_PT015H.grib2 2026-04-26 14:44 385K
20260426T12Z_MSC_RDPS_DewPointDepression_IsbL-0650_RLatLon0.09_PT015H.grib2 2026-04-26 14:44 387K
20260426T12Z_MSC_RDPS_DewPointDepression_IsbL-0700_RLatLon0.09_PT015H.grib2 2026-04-26 14:44 398K
20260426T12Z_MSC_RDPS_DewPointDepression_IsbL-0750_RLatLon0.09_PT015H.grib2 2026-04-26 14:44 424K
20260426T12Z_MSC_RDPS_DewPointDepression_IsbL-0800_RLatLon0.09_PT015H.grib2 2026-04-26 14:44 454K
20260426T12Z_MSC_RDPS_DewPointDepression_IsbL-0850_RLatLon0.09_PT015H.grib2 2026-04-26 14:44 472K
20260426T12Z_MSC_RDPS_DewPointDepression_IsbL-0875_RLatLon0.09_PT015H.grib2 2026-04-26 14:44 471K
20260426T12Z_MSC_RDPS_DewPointDepression_IsbL-0900_RLatLon0.09_PT015H.grib2 2026-04-26 14:44 462K
20260426T12Z_MSC_RDPS_DewPointDepression_IsbL-0925_RLatLon0.09_PT015H.grib2 2026-04-26 14:44 453K
20260426T12Z_MSC_RDPS_DewPointDepression_IsbL-0950_RLatLon0.09_PT015H.grib2 2026-04-26 14:44 438K
20260426T12Z_MSC_RDPS_DewPointDepression_IsbL-0970_RLatLon0.09_PT015H.grib2 2026-04-26 14:44 426K
20260426T12Z_MSC_RDPS_DewPointDepression_IsbL-0985_RLatLon0.09_PT015H.grib2 2026-04-26 14:44 422K
20260426T12Z_MSC_RDPS_DewPointDepression_IsbL-1000_RLatLon0.09_PT015H.grib2 2026-04-26 14:44 415K
20260426T12Z_MSC_RDPS_DewPointDepression_IsbL-1015_RLatLon0.09_PT015H.grib2 2026-04-26 14:44 408K
20260426T12Z_MSC_RDPS_DewPoint_AGL-2m_RLatLon0.09_PT015H.grib2 2026-04-26 14:44 302K
20260426T12Z_MSC_RDPS_DownwardLongwaveRadiationFlux-Accum_Sfc_RLatLon0.09_PT015H.grib2 2026-04-26 14:44 517K
20260426T12Z_MSC_RDPS_DownwardShortwaveRadiationFlux-Accum_NTAtm_RLatLon0.09_PT015H.grib2 2026-04-26 14:44 115K
20260426T12Z_MSC_RDPS_DownwardShortwaveRadiationFlux-Accum_Sfc_RLatLon0.09_PT015H.grib2 2026-04-26 14:44 614K
20260426T12Z_MSC_RDPS_FreezingRain-Accum1h_Sfc_RLatLon0.09_PT015H.grib2 2026-04-26 14:44 18K
20260426T12Z_MSC_RDPS_FreezingRain-Accum3h_Sfc_RLatLon0.09_PT015H.grib2 2026-04-26 14:44 21K
20260426T12Z_MSC_RDPS_FreezingRain-Accum_Sfc_RLatLon0.09_PT015H.grib2 2026-04-26 14:44 72K
20260426T12Z_MSC_RDPS_GeopotentialHeight_IsbL-0001_RLatLon0.09_PT015H.grib2 2026-04-26 14:44 236K
20260426T12Z_MSC_RDPS_GeopotentialHeight_IsbL-0005_RLatLon0.09_PT015H.grib2 2026-04-26 14:44 335K
20260426T12Z_MSC_RDPS_GeopotentialHeight_IsbL-0010_RLatLon0.09_PT015H.grib2 2026-04-26 14:44 303K
20260426T12Z_MSC_RDPS_GeopotentialHeight_IsbL-0020_RLatLon0.09_PT015H.grib2 2026-04-26 14:44 303K
20260426T12Z_MSC_RDPS_GeopotentialHeight_IsbL-0030_RLatLon0.09_PT015H.grib2 2026-04-26 14:44 401K
20260426T12Z_MSC_RDPS_GeopotentialHeight_IsbL-0050_RLatLon0.09_PT015H.grib2 2026-04-26 14:44 306K
20260426T12Z_MSC_RDPS_GeopotentialHeight_IsbL-0100_RLatLon0.09_PT015H.grib2 2026-04-26 14:44 287K
20260426T12Z_MSC_RDPS_GeopotentialHeight_IsbL-0150_RLatLon0.09_PT015H.grib2 2026-04-26 14:44 227K
20260426T12Z_MSC_RDPS_GeopotentialHeight_IsbL-0175_RLatLon0.09_PT015H.grib2 2026-04-26 14:44 230K
20260426T12Z_MSC_RDPS_GeopotentialHeight_IsbL-0200_RLatLon0.09_PT015H.grib2 2026-04-26 14:44 263K
20260426T12Z_MSC_RDPS_GeopotentialHeight_IsbL-0225_RLatLon0.09_PT015H.grib2 2026-04-26 14:44 265K
20260426T12Z_MSC_RDPS_GeopotentialHeight_IsbL-0250_RLatLon0.09_PT015H.grib2 2026-04-26 14:44 266K
20260426T12Z_MSC_RDPS_GeopotentialHeight_IsbL-0275_RLatLon0.09_PT015H.grib2 2026-04-26 14:44 266K
20260426T12Z_MSC_RDPS_GeopotentialHeight_IsbL-0300_RLatLon0.09_PT015H.grib2 2026-04-26 14:44 234K
20260426T12Z_MSC_RDPS_GeopotentialHeight_IsbL-0350_RLatLon0.09_PT015H.grib2 2026-04-26 14:44 230K
20260426T12Z_MSC_RDPS_GeopotentialHeight_IsbL-0400_RLatLon0.09_PT015H.grib2 2026-04-26 14:44 227K
20260426T12Z_MSC_RDPS_GeopotentialHeight_IsbL-0450_RLatLon0.09_PT015H.grib2 2026-04-26 14:44 296K
20260426T12Z_MSC_RDPS_GeopotentialHeight_IsbL-0500_RLatLon0.09_PT015H.grib2 2026-04-26 14:44 291K
20260426T12Z_MSC_RDPS_GeopotentialHeight_IsbL-0550_RLatLon0.09_PT015H.grib2 2026-04-26 14:44 288K
20260426T12Z_MSC_RDPS_GeopotentialHeight_IsbL-0600_RLatLon0.09_PT015H.grib2 2026-04-26 14:44 285K
20260426T12Z_MSC_RDPS_GeopotentialHeight_IsbL-0650_RLatLon0.09_PT015H.grib2 2026-04-26 14:44 282K
20260426T12Z_MSC_RDPS_GeopotentialHeight_IsbL-0700_RLatLon0.09_PT015H.grib2 2026-04-26 14:44 281K
20260426T12Z_MSC_RDPS_GeopotentialHeight_IsbL-0750_RLatLon0.09_PT015H.grib2 2026-04-26 14:44 282K
20260426T12Z_MSC_RDPS_GeopotentialHeight_IsbL-0800_RLatLon0.09_PT015H.grib2 2026-04-26 14:44 259K
20260426T12Z_MSC_RDPS_GeopotentialHeight_IsbL-0850_RLatLon0.09_PT015H.grib2 2026-04-26 14:44 265K
20260426T12Z_MSC_RDPS_GeopotentialHeight_IsbL-0875_RLatLon0.09_PT015H.grib2 2026-04-26 14:44 266K
20260426T12Z_MSC_RDPS_GeopotentialHeight_IsbL-0900_RLatLon0.09_PT015H.grib2 2026-04-26 14:44 270K
20260426T12Z_MSC_RDPS_GeopotentialHeight_IsbL-0925_RLatLon0.09_PT015H.grib2 2026-04-26 14:44 273K
20260426T12Z_MSC_RDPS_GeopotentialHeight_IsbL-0950_RLatLon0.09_PT015H.grib2 2026-04-26 14:44 275K
20260426T12Z_MSC_RDPS_GeopotentialHeight_IsbL-0970_RLatLon0.09_PT015H.grib2 2026-04-26 14:44 280K
20260426T12Z_MSC_RDPS_GeopotentialHeight_IsbL-0985_RLatLon0.09_PT015H.grib2 2026-04-26 14:44 287K
20260426T12Z_MSC_RDPS_GeopotentialHeight_IsbL-1000_RLatLon0.09_PT015H.grib2 2026-04-26 14:44 296K
20260426T12Z_MSC_RDPS_GeopotentialHeight_IsbL-1015_RLatLon0.09_PT015H.grib2 2026-04-26 14:44 307K
20260426T12Z_MSC_RDPS_Humidex_Sfc_RLatLon0.09_PT015H.grib2 2026-04-26 14:44 2.4M
20260426T12Z_MSC_RDPS_IcePellets-Accum1h_Sfc_RLatLon0.09_PT015H.grib2 2026-04-26 14:44 5.5K
20260426T12Z_MSC_RDPS_IcePellets-Accum3h_Sfc_RLatLon0.09_PT015H.grib2 2026-04-26 14:44 6.3K
20260426T12Z_MSC_RDPS_IcePellets-Accum_Sfc_RLatLon0.09_PT015H.grib2 2026-04-26 14:44 16K
20260426T12Z_MSC_RDPS_KIndex_Sfc_RLatLon0.09_PT015H.grib2 2026-04-26 14:44 2.4M
20260426T12Z_MSC_RDPS_LatentHeatNetFlux_Sfc_RLatLon0.09_PT015H.grib2 2026-04-26 14:44 314K
20260426T12Z_MSC_RDPS_LiftedIndex-MU-VT_IsbL-0500_RLatLon0.09_PT015H.grib2 2026-04-26 14:44 2.4M
20260426T12Z_MSC_RDPS_NetLongwaveRadiationFlux-Accum_Sfc_RLatLon0.09_PT015H.grib2 2026-04-26 14:44 528K
20260426T12Z_MSC_RDPS_NetShortwaveRadiationFlux-Accum_Sfc_RLatLon0.09_PT015H.grib2 2026-04-26 14:44 612K
20260426T12Z_MSC_RDPS_PlanetaryBoundaryLayerHeight_Sfc_RLatLon0.09_PT015H.grib2 2026-04-26 14:44 1.1M
20260426T12Z_MSC_RDPS_Precip-Accum1h_Sfc_RLatLon0.09_PT015H.grib2 2026-04-26 14:44 1.2M
20260426T12Z_MSC_RDPS_Precip-Accum3h_Sfc_RLatLon0.09_PT015H.grib2 2026-04-26 14:44 1.3M
20260426T12Z_MSC_RDPS_Precip-Accum_Sfc_RLatLon0.09_PT015H.grib2 2026-04-26 14:44 1.7M
20260426T12Z_MSC_RDPS_PrecipRate_Sfc_RLatLon0.09_PT015H.grib2 2026-04-26 14:44 176K
20260426T12Z_MSC_RDPS_PrecipType-Instant_Sfc_RLatLon0.09_PT015H.grib2 2026-04-26 14:44 576K
20260426T12Z_MSC_RDPS_Pressure-Trend3h_Sfc_RLatLon0.09_PT015H.grib2 2026-04-26 14:44 1.2M
20260426T12Z_MSC_RDPS_Pressure_MSL_RLatLon0.09_PT015H.grib2 2026-04-26 14:44 323K
20260426T12Z_MSC_RDPS_Pressure_PVU-1.5_RLatLon0.09_PT015H.grib2 2026-04-26 14:44 2.3M
20260426T12Z_MSC_RDPS_Pressure_PVU-1_RLatLon0.09_PT015H.grib2 2026-04-26 14:44 2.4M
20260426T12Z_MSC_RDPS_Pressure_PVU-2_RLatLon0.09_PT015H.grib2 2026-04-26 14:44 2.4M
20260426T12Z_MSC_RDPS_Pressure_Sfc_RLatLon0.09_PT015H.grib2 2026-04-26 14:44 497K
20260426T12Z_MSC_RDPS_RadiativeTemp_Sfc_RLatLon0.09_PT015H.grib2 2026-04-26 14:44 306K
20260426T12Z_MSC_RDPS_Rain-Accum1h_Sfc_RLatLon0.09_PT015H.grib2 2026-04-26 14:44 585K
20260426T12Z_MSC_RDPS_Rain-Accum3h_Sfc_RLatLon0.09_PT015H.grib2 2026-04-26 14:44 677K
20260426T12Z_MSC_RDPS_Rain-Accum_Sfc_RLatLon0.09_PT015H.grib2 2026-04-26 14:44 1.2M
20260426T12Z_MSC_RDPS_RelativeHumidity_AGL-2m_RLatLon0.09_PT015H.grib2 2026-04-26 14:44 1.0M
20260426T12Z_MSC_RDPS_RelativeHumidity_IsbL-0010_RLatLon0.09_PT015H.grib2 2026-04-26 14:44 630K
20260426T12Z_MSC_RDPS_RelativeHumidity_IsbL-0020_RLatLon0.09_PT015H.grib2 2026-04-26 14:44 656K
20260426T12Z_MSC_RDPS_RelativeHumidity_IsbL-0030_RLatLon0.09_PT015H.grib2 2026-04-26 14:44 542K
20260426T12Z_MSC_RDPS_RelativeHumidity_IsbL-0050_RLatLon0.09_PT015H.grib2 2026-04-26 14:44 375K
20260426T12Z_MSC_RDPS_RelativeHumidity_IsbL-0100_RLatLon0.09_PT015H.grib2 2026-04-26 14:44 271K
20260426T12Z_MSC_RDPS_RelativeHumidity_IsbL-0150_RLatLon0.09_PT015H.grib2 2026-04-26 14:44 411K
20260426T12Z_MSC_RDPS_RelativeHumidity_IsbL-0175_RLatLon0.09_PT015H.grib2 2026-04-26 14:44 486K
20260426T12Z_MSC_RDPS_RelativeHumidity_IsbL-0200_RLatLon0.09_PT015H.grib2 2026-04-26 14:44 565K
20260426T12Z_MSC_RDPS_RelativeHumidity_IsbL-0225_RLatLon0.09_PT015H.grib2 2026-04-26 14:44 635K
20260426T12Z_MSC_RDPS_RelativeHumidity_IsbL-0250_RLatLon0.09_PT015H.grib2 2026-04-26 14:44 708K
20260426T12Z_MSC_RDPS_RelativeHumidity_IsbL-0275_RLatLon0.09_PT015H.grib2 2026-04-26 14:44 736K
20260426T12Z_MSC_RDPS_RelativeHumidity_IsbL-0300_RLatLon0.09_PT015H.grib2 2026-04-26 14:44 782K
20260426T12Z_MSC_RDPS_RelativeHumidity_IsbL-0350_RLatLon0.09_PT015H.grib2 2026-04-26 14:44 795K
20260426T12Z_MSC_RDPS_RelativeHumidity_IsbL-0400_RLatLon0.09_PT015H.grib2 2026-04-26 14:44 807K
20260426T12Z_MSC_RDPS_RelativeHumidity_IsbL-0450_RLatLon0.09_PT015H.grib2 2026-04-26 14:44 818K
20260426T12Z_MSC_RDPS_RelativeHumidity_IsbL-0500_RLatLon0.09_PT015H.grib2 2026-04-26 14:44 824K
20260426T12Z_MSC_RDPS_RelativeHumidity_IsbL-0550_RLatLon0.09_PT015H.grib2 2026-04-26 14:44 842K
20260426T12Z_MSC_RDPS_RelativeHumidity_IsbL-0600_RLatLon0.09_PT015H.grib2 2026-04-26 14:44 860K
20260426T12Z_MSC_RDPS_RelativeHumidity_IsbL-0650_RLatLon0.09_PT015H.grib2 2026-04-26 14:44 879K
20260426T12Z_MSC_RDPS_RelativeHumidity_IsbL-0700_RLatLon0.09_PT015H.grib2 2026-04-26 14:44 905K
20260426T12Z_MSC_RDPS_RelativeHumidity_IsbL-0750_RLatLon0.09_PT015H.grib2 2026-04-26 14:44 951K
20260426T12Z_MSC_RDPS_RelativeHumidity_IsbL-0800_RLatLon0.09_PT015H.grib2 2026-04-26 14:44 1.0M
20260426T12Z_MSC_RDPS_RelativeHumidity_IsbL-0850_RLatLon0.09_PT015H.grib2 2026-04-26 14:44 1.0M
20260426T12Z_MSC_RDPS_RelativeHumidity_IsbL-0875_RLatLon0.09_PT015H.grib2 2026-04-26 14:44 1.1M
20260426T12Z_MSC_RDPS_RelativeHumidity_IsbL-0900_RLatLon0.09_PT015H.grib2 2026-04-26 14:44 1.1M
20260426T12Z_MSC_RDPS_RelativeHumidity_IsbL-0925_RLatLon0.09_PT015H.grib2 2026-04-26 14:44 1.1M
20260426T12Z_MSC_RDPS_RelativeHumidity_IsbL-0950_RLatLon0.09_PT015H.grib2 2026-04-26 14:44 1.1M
20260426T12Z_MSC_RDPS_RelativeHumidity_IsbL-0970_RLatLon0.09_PT015H.grib2 2026-04-26 14:44 1.0M
20260426T12Z_MSC_RDPS_RelativeHumidity_IsbL-0985_RLatLon0.09_PT015H.grib2 2026-04-26 14:44 1.0M
20260426T12Z_MSC_RDPS_RelativeHumidity_IsbL-1000_RLatLon0.09_PT015H.grib2 2026-04-26 14:44 1.0M
20260426T12Z_MSC_RDPS_RelativeHumidity_IsbL-1015_RLatLon0.09_PT015H.grib2 2026-04-26 14:44 1.0M
20260426T12Z_MSC_RDPS_Runoff-Accum_Sfc_RLatLon0.09_PT015H.grib2 2026-04-26 14:44 56K
20260426T12Z_MSC_RDPS_SWEATIndex_Sfc_RLatLon0.09_PT015H.grib2 2026-04-26 14:44 2.4M
20260426T12Z_MSC_RDPS_SeeingIndex_EAtm_RLatLon0.09_PT015H.grib2 2026-04-26 14:44 1.0M
20260426T12Z_MSC_RDPS_SensibleHeatNetFlux_Sfc_RLatLon0.09_PT015H.grib2 2026-04-26 14:44 212K
20260426T12Z_MSC_RDPS_ShowalterIndex_IsbL-0500_RLatLon0.09_PT015H.grib2 2026-04-26 14:44 2.6M
20260426T12Z_MSC_RDPS_SkyTransparencyIndex_EAtm_RLatLon0.09_PT015H.grib2 2026-04-26 14:44 714K
20260426T12Z_MSC_RDPS_Snow-Accum1h_Sfc_RLatLon0.09_PT015H.grib2 2026-04-26 14:44 396K
20260426T12Z_MSC_RDPS_Snow-Accum3h_Sfc_RLatLon0.09_PT015H.grib2 2026-04-26 14:44 413K
20260426T12Z_MSC_RDPS_Snow-Accum_Sfc_RLatLon0.09_PT015H.grib2 2026-04-26 14:44 717K
20260426T12Z_MSC_RDPS_SnowDensity_Sfc_RLatLon0.09_PT015H.grib2 2026-04-26 14:44 182K
20260426T12Z_MSC_RDPS_SnowDepth_Sfc_RLatLon0.09_PT015H.grib2 2026-04-26 14:44 723K
20260426T12Z_MSC_RDPS_SoilTemp_DBS-0to10cm_RLatLon0.09_PT015H.grib2 2026-04-26 14:44 219K
20260426T12Z_MSC_RDPS_SoilTemp_Sfc_RLatLon0.09_PT015H.grib2 2026-04-26 14:44 267K
20260426T12Z_MSC_RDPS_SoilVolumetricIceContent_Sfc_RLatLon0.09_PT015H.grib2 2026-04-26 14:44 168K
20260426T12Z_MSC_RDPS_SoilVolumetricWaterContent_DBS-0to10cm_RLatLon0.09_PT015H.grib2 2026-04-26 14:44 258K
20260426T12Z_MSC_RDPS_SoilVolumetricWaterContent_DBS-0to1cm_RLatLon0.09_PT015H.grib2 2026-04-26 14:44 338K
20260426T12Z_MSC_RDPS_SpecificHumidity_AGL-120m_RLatLon0.09_PT015H.grib2 2026-04-26 14:44 474K
20260426T12Z_MSC_RDPS_SpecificHumidity_AGL-2m_RLatLon0.09_PT015H.grib2 2026-04-26 14:44 638K
20260426T12Z_MSC_RDPS_SpecificHumidity_AGL-40m_RLatLon0.09_PT015H.grib2 2026-04-26 14:44 480K
20260426T12Z_MSC_RDPS_SpecificHumidity_AGL-80m_RLatLon0.09_PT015H.grib2 2026-04-26 14:44 476K
20260426T12Z_MSC_RDPS_SpecificHumidity_IsbL-0001_RLatLon0.09_PT015H.grib2 2026-04-26 14:44 335K
20260426T12Z_MSC_RDPS_SpecificHumidity_IsbL-0005_RLatLon0.09_PT015H.grib2 2026-04-26 14:44 358K
20260426T12Z_MSC_RDPS_SpecificHumidity_IsbL-0010_RLatLon0.09_PT015H.grib2 2026-04-26 14:44 398K
20260426T12Z_MSC_RDPS_SpecificHumidity_IsbL-0020_RLatLon0.09_PT015H.grib2 2026-04-26 14:44 389K
20260426T12Z_MSC_RDPS_SpecificHumidity_IsbL-0030_RLatLon0.09_PT015H.grib2 2026-04-26 14:44 481K
20260426T12Z_MSC_RDPS_SpecificHumidity_IsbL-0050_RLatLon0.09_PT015H.grib2 2026-04-26 14:44 474K
20260426T12Z_MSC_RDPS_SpecificHumidity_IsbL-0100_RLatLon0.09_PT015H.grib2 2026-04-26 14:44 448K
20260426T12Z_MSC_RDPS_SpecificHumidity_IsbL-0150_RLatLon0.09_PT015H.grib2 2026-04-26 14:44 362K
20260426T12Z_MSC_RDPS_SpecificHumidity_IsbL-0175_RLatLon0.09_PT015H.grib2 2026-04-26 14:44 472K
20260426T12Z_MSC_RDPS_SpecificHumidity_IsbL-0200_RLatLon0.09_PT015H.grib2 2026-04-26 14:44 468K
20260426T12Z_MSC_RDPS_SpecificHumidity_IsbL-0225_RLatLon0.09_PT015H.grib2 2026-04-26 14:44 575K
20260426T12Z_MSC_RDPS_SpecificHumidity_IsbL-0250_RLatLon0.09_PT015H.grib2 2026-04-26 14:44 575K
20260426T12Z_MSC_RDPS_SpecificHumidity_IsbL-0275_RLatLon0.09_PT015H.grib2 2026-04-26 14:44 490K
20260426T12Z_MSC_RDPS_SpecificHumidity_IsbL-0300_RLatLon0.09_PT015H.grib2 2026-04-26 14:44 562K
20260426T12Z_MSC_RDPS_SpecificHumidity_IsbL-0350_RLatLon0.09_PT015H.grib2 2026-04-26 14:44 546K
20260426T12Z_MSC_RDPS_SpecificHumidity_IsbL-0400_RLatLon0.09_PT015H.grib2 2026-04-26 14:44 526K
20260426T12Z_MSC_RDPS_SpecificHumidity_IsbL-0450_RLatLon0.09_PT015H.grib2 2026-04-26 14:44 582K
20260426T12Z_MSC_RDPS_SpecificHumidity_IsbL-0500_RLatLon0.09_PT015H.grib2 2026-04-26 14:44 517K
20260426T12Z_MSC_RDPS_SpecificHumidity_IsbL-0550_RLatLon0.09_PT015H.grib2 2026-04-26 14:44 572K
20260426T12Z_MSC_RDPS_SpecificHumidity_IsbL-0600_RLatLon0.09_PT015H.grib2 2026-04-26 14:44 637K
20260426T12Z_MSC_RDPS_SpecificHumidity_IsbL-0650_RLatLon0.09_PT015H.grib2 2026-04-26 14:44 552K
20260426T12Z_MSC_RDPS_SpecificHumidity_IsbL-0700_RLatLon0.09_PT015H.grib2 2026-04-26 14:44 598K
20260426T12Z_MSC_RDPS_SpecificHumidity_IsbL-0750_RLatLon0.09_PT015H.grib2 2026-04-26 14:44 656K
20260426T12Z_MSC_RDPS_SpecificHumidity_IsbL-0800_RLatLon0.09_PT015H.grib2 2026-04-26 14:44 736K
20260426T12Z_MSC_RDPS_SpecificHumidity_IsbL-0850_RLatLon0.09_PT015H.grib2 2026-04-26 14:44 800K
20260426T12Z_MSC_RDPS_SpecificHumidity_IsbL-0875_RLatLon0.09_PT015H.grib2 2026-04-26 14:44 820K
20260426T12Z_MSC_RDPS_SpecificHumidity_IsbL-0900_RLatLon0.09_PT015H.grib2 2026-04-26 14:44 831K
20260426T12Z_MSC_RDPS_SpecificHumidity_IsbL-0925_RLatLon0.09_PT015H.grib2 2026-04-26 14:44 834K
20260426T12Z_MSC_RDPS_SpecificHumidity_IsbL-0950_RLatLon0.09_PT015H.grib2 2026-04-26 14:44 825K
20260426T12Z_MSC_RDPS_SpecificHumidity_IsbL-0970_RLatLon0.09_PT015H.grib2 2026-04-26 14:44 670K
20260426T12Z_MSC_RDPS_SpecificHumidity_IsbL-0985_RLatLon0.09_PT015H.grib2 2026-04-26 14:44 663K
20260426T12Z_MSC_RDPS_SpecificHumidity_IsbL-1000_RLatLon0.09_PT015H.grib2 2026-04-26 14:44 657K
20260426T12Z_MSC_RDPS_SpecificHumidity_IsbL-1015_RLatLon0.09_PT015H.grib2 2026-04-26 14:44 650K
20260426T12Z_MSC_RDPS_SpecificHumidity_Sfc_RLatLon0.09_PT015H.grib2 2026-04-26 14:44 312K
20260426T12Z_MSC_RDPS_StormRelativeHelicity_EtaL-10000_RLatLon0.09_PT015H.grib2 2026-04-26 14:44 1.1M
20260426T12Z_MSC_RDPS_StormSeverityIndex_EtaL-10000_RLatLon0.09_PT015H.grib2 2026-04-26 14:44 1.2M
20260426T12Z_MSC_RDPS_Thickness_IsbL-0850to0700_RLatLon0.09_PT015H.grib2 2026-04-26 14:44 193K
20260426T12Z_MSC_RDPS_Thickness_IsbL-1000to0500_RLatLon0.09_PT015H.grib2 2026-04-26 14:44 200K
20260426T12Z_MSC_RDPS_Thickness_IsbL-1000to0850_RLatLon0.09_PT015H.grib2 2026-04-26 14:44 182K
20260426T12Z_MSC_RDPS_TotalCloudCover_Sfc_RLatLon0.09_PT015H.grib2 2026-04-26 14:44 658K
20260426T12Z_MSC_RDPS_TotalTotalsIndex_Sfc_RLatLon0.09_PT015H.grib2 2026-04-26 14:44 2.4M
20260426T12Z_MSC_RDPS_UVIndex-ClearSky_Sfc_RLatLon0.09_PT015H.grib2 2026-04-26 14:44 129K
20260426T12Z_MSC_RDPS_UVIndex_Sfc_RLatLon0.09_PT015H.grib2 2026-04-26 14:44 236K
20260426T12Z_MSC_RDPS_UpwardLongwaveRadiationFlux_NTAtm_RLatLon0.09_PT015H.grib2 2026-04-26 14:44 490K
20260426T12Z_MSC_RDPS_UpwardShortwaveRadiationFlux_NTAtm_RLatLon0.09_PT015H.grib2 2026-04-26 14:44 185K
20260426T12Z_MSC_RDPS_VerticalVelocity_IsbL-0250_RLatLon0.09_PT015H.grib2 2026-04-26 14:44 544K
20260426T12Z_MSC_RDPS_VerticalVelocity_IsbL-0500_RLatLon0.09_PT015H.grib2 2026-04-26 14:44 537K
20260426T12Z_MSC_RDPS_VerticalVelocity_IsbL-0700_RLatLon0.09_PT015H.grib2 2026-04-26 14:44 592K
20260426T12Z_MSC_RDPS_VerticalVelocity_IsbL-0850_RLatLon0.09_PT015H.grib2 2026-04-26 14:44 691K
20260426T12Z_MSC_RDPS_VerticalWindShear_EtaL-6500_RLatLon0.09_PT015H.grib2 2026-04-26 14:44 1.2M
20260426T12Z_MSC_RDPS_WindChill_Sfc_RLatLon0.09_PT015H.grib2 2026-04-26 14:44 1.1M
20260426T12Z_MSC_RDPS_WindDir_AGL-10m_RLatLon0.09_PT015H.grib2 2026-04-26 14:44 963K
20260426T12Z_MSC_RDPS_WindDir_AGL-120m_RLatLon0.09_PT015H.grib2 2026-04-26 14:44 595K
20260426T12Z_MSC_RDPS_WindDir_AGL-40m_RLatLon0.09_PT015H.grib2 2026-04-26 14:44 629K
20260426T12Z_MSC_RDPS_WindDir_AGL-80m_RLatLon0.09_PT015H.grib2 2026-04-26 14:44 608K
20260426T12Z_MSC_RDPS_WindDir_IsbL-0001_RLatLon0.09_PT015H.grib2 2026-04-26 14:44 295K
20260426T12Z_MSC_RDPS_WindDir_IsbL-0005_RLatLon0.09_PT015H.grib2 2026-04-26 14:44 363K
20260426T12Z_MSC_RDPS_WindDir_IsbL-0010_RLatLon0.09_PT015H.grib2 2026-04-26 14:44 387K
20260426T12Z_MSC_RDPS_WindDir_IsbL-0020_RLatLon0.09_PT015H.grib2 2026-04-26 14:44 421K
20260426T12Z_MSC_RDPS_WindDir_IsbL-0030_RLatLon0.09_PT015H.grib2 2026-04-26 14:44 409K
20260426T12Z_MSC_RDPS_WindDir_IsbL-0050_RLatLon0.09_PT015H.grib2 2026-04-26 14:44 427K
20260426T12Z_MSC_RDPS_WindDir_IsbL-0100_RLatLon0.09_PT015H.grib2 2026-04-26 14:44 411K
20260426T12Z_MSC_RDPS_WindDir_IsbL-0150_RLatLon0.09_PT015H.grib2 2026-04-26 14:44 414K
20260426T12Z_MSC_RDPS_WindDir_IsbL-0175_RLatLon0.09_PT015H.grib2 2026-04-26 14:44 445K
20260426T12Z_MSC_RDPS_WindDir_IsbL-0200_RLatLon0.09_PT015H.grib2 2026-04-26 14:44 457K
20260426T12Z_MSC_RDPS_WindDir_IsbL-0225_RLatLon0.09_PT015H.grib2 2026-04-26 14:44 459K
20260426T12Z_MSC_RDPS_WindDir_IsbL-0250_RLatLon0.09_PT015H.grib2 2026-04-26 14:44 460K
20260426T12Z_MSC_RDPS_WindDir_IsbL-0275_RLatLon0.09_PT015H.grib2 2026-04-26 14:44 485K
20260426T12Z_MSC_RDPS_WindDir_IsbL-0300_RLatLon0.09_PT015H.grib2 2026-04-26 14:44 479K
20260426T12Z_MSC_RDPS_WindDir_IsbL-0350_RLatLon0.09_PT015H.grib2 2026-04-26 14:44 498K
20260426T12Z_MSC_RDPS_WindDir_IsbL-0400_RLatLon0.09_PT015H.grib2 2026-04-26 14:44 518K
20260426T12Z_MSC_RDPS_WindDir_IsbL-0450_RLatLon0.09_PT015H.grib2 2026-04-26 14:44 531K
20260426T12Z_MSC_RDPS_WindDir_IsbL-0500_RLatLon0.09_PT015H.grib2 2026-04-26 14:44 548K
20260426T12Z_MSC_RDPS_WindDir_IsbL-0550_RLatLon0.09_PT015H.grib2 2026-04-26 14:44 565K
20260426T12Z_MSC_RDPS_WindDir_IsbL-0600_RLatLon0.09_PT015H.grib2 2026-04-26 14:44 594K
20260426T12Z_MSC_RDPS_WindDir_IsbL-0650_RLatLon0.09_PT015H.grib2 2026-04-26 14:44 637K
20260426T12Z_MSC_RDPS_WindDir_IsbL-0700_RLatLon0.09_PT015H.grib2 2026-04-26 14:44 680K
20260426T12Z_MSC_RDPS_WindDir_IsbL-0750_RLatLon0.09_PT015H.grib2 2026-04-26 14:44 732K
20260426T12Z_MSC_RDPS_WindDir_IsbL-0800_RLatLon0.09_PT015H.grib2 2026-04-26 14:44 804K
20260426T12Z_MSC_RDPS_WindDir_IsbL-0850_RLatLon0.09_PT015H.grib2 2026-04-26 14:44 877K
20260426T12Z_MSC_RDPS_WindDir_IsbL-0875_RLatLon0.09_PT015H.grib2 2026-04-26 14:44 894K
20260426T12Z_MSC_RDPS_WindDir_IsbL-0900_RLatLon0.09_PT015H.grib2 2026-04-26 14:44 903K
20260426T12Z_MSC_RDPS_WindDir_IsbL-0925_RLatLon0.09_PT015H.grib2 2026-04-26 14:44 905K
20260426T12Z_MSC_RDPS_WindDir_IsbL-0950_RLatLon0.09_PT015H.grib2 2026-04-26 14:44 898K
20260426T12Z_MSC_RDPS_WindDir_IsbL-0970_RLatLon0.09_PT015H.grib2 2026-04-26 14:44 903K
20260426T12Z_MSC_RDPS_WindDir_IsbL-0985_RLatLon0.09_PT015H.grib2 2026-04-26 14:44 916K
20260426T12Z_MSC_RDPS_WindDir_IsbL-1000_RLatLon0.09_PT015H.grib2 2026-04-26 14:44 935K
20260426T12Z_MSC_RDPS_WindDir_IsbL-1015_RLatLon0.09_PT015H.grib2 2026-04-26 14:44 953K
20260426T12Z_MSC_RDPS_WindGust-Max_AGL-10m_RLatLon0.09_PT015H.grib2 2026-04-26 14:44 951K
20260426T12Z_MSC_RDPS_WindGust-Min_AGL-10m_RLatLon0.09_PT015H.grib2 2026-04-26 14:44 966K
20260426T12Z_MSC_RDPS_WindGust_AGL-10m_RLatLon0.09_PT015H.grib2 2026-04-26 14:44 939K
20260426T12Z_MSC_RDPS_WindSpeed_AGL-10m_RLatLon0.09_PT015H.grib2 2026-04-26 14:44 843K
20260426T12Z_MSC_RDPS_WindSpeed_AGL-120m_RLatLon0.09_PT015H.grib2 2026-04-26 14:44 548K
20260426T12Z_MSC_RDPS_WindSpeed_AGL-40m_RLatLon0.09_PT015H.grib2 2026-04-26 14:44 553K
20260426T12Z_MSC_RDPS_WindSpeed_AGL-80m_RLatLon0.09_PT015H.grib2 2026-04-26 14:44 550K
20260426T12Z_MSC_RDPS_WindSpeed_IsbL-0001_RLatLon0.09_PT015H.grib2 2026-04-26 14:44 249K
20260426T12Z_MSC_RDPS_WindSpeed_IsbL-0005_RLatLon0.09_PT015H.grib2 2026-04-26 14:44 298K
20260426T12Z_MSC_RDPS_WindSpeed_IsbL-0010_RLatLon0.09_PT015H.grib2 2026-04-26 14:44 308K
20260426T12Z_MSC_RDPS_WindSpeed_IsbL-0020_RLatLon0.09_PT015H.grib2 2026-04-26 14:44 325K
20260426T12Z_MSC_RDPS_WindSpeed_IsbL-0030_RLatLon0.09_PT015H.grib2 2026-04-26 14:44 323K
20260426T12Z_MSC_RDPS_WindSpeed_IsbL-0050_RLatLon0.09_PT015H.grib2 2026-04-26 14:44 459K
20260426T12Z_MSC_RDPS_WindSpeed_IsbL-0100_RLatLon0.09_PT015H.grib2 2026-04-26 14:44 475K
20260426T12Z_MSC_RDPS_WindSpeed_IsbL-0150_RLatLon0.09_PT015H.grib2 2026-04-26 14:44 377K
20260426T12Z_MSC_RDPS_WindSpeed_IsbL-0175_RLatLon0.09_PT015H.grib2 2026-04-26 14:44 427K
20260426T12Z_MSC_RDPS_WindSpeed_IsbL-0200_RLatLon0.09_PT015H.grib2 2026-04-26 14:44 443K
20260426T12Z_MSC_RDPS_WindSpeed_IsbL-0225_RLatLon0.09_PT015H.grib2 2026-04-26 14:44 452K
20260426T12Z_MSC_RDPS_WindSpeed_IsbL-0250_RLatLon0.09_PT015H.grib2 2026-04-26 14:44 458K
20260426T12Z_MSC_RDPS_WindSpeed_IsbL-0275_RLatLon0.09_PT015H.grib2 2026-04-26 14:44 475K
20260426T12Z_MSC_RDPS_WindSpeed_IsbL-0300_RLatLon0.09_PT015H.grib2 2026-04-26 14:44 451K
20260426T12Z_MSC_RDPS_WindSpeed_IsbL-0350_RLatLon0.09_PT015H.grib2 2026-04-26 14:44 479K
20260426T12Z_MSC_RDPS_WindSpeed_IsbL-0400_RLatLon0.09_PT015H.grib2 2026-04-26 14:44 464K
20260426T12Z_MSC_RDPS_WindSpeed_IsbL-0450_RLatLon0.09_PT015H.grib2 2026-04-26 14:44 463K
20260426T12Z_MSC_RDPS_WindSpeed_IsbL-0500_RLatLon0.09_PT015H.grib2 2026-04-26 14:44 578K
20260426T12Z_MSC_RDPS_WindSpeed_IsbL-0550_RLatLon0.09_PT015H.grib2 2026-04-26 14:44 581K
20260426T12Z_MSC_RDPS_WindSpeed_IsbL-0600_RLatLon0.09_PT015H.grib2 2026-04-26 14:44 593K
20260426T12Z_MSC_RDPS_WindSpeed_IsbL-0650_RLatLon0.09_PT015H.grib2 2026-04-26 14:44 657K
20260426T12Z_MSC_RDPS_WindSpeed_IsbL-0700_RLatLon0.09_PT015H.grib2 2026-04-26 14:44 681K
20260426T12Z_MSC_RDPS_WindSpeed_IsbL-0750_RLatLon0.09_PT015H.grib2 2026-04-26 14:44 710K
20260426T12Z_MSC_RDPS_WindSpeed_IsbL-0800_RLatLon0.09_PT015H.grib2 2026-04-26 14:44 758K
20260426T12Z_MSC_RDPS_WindSpeed_IsbL-0850_RLatLon0.09_PT015H.grib2 2026-04-26 14:44 813K
20260426T12Z_MSC_RDPS_WindSpeed_IsbL-0875_RLatLon0.09_PT015H.grib2 2026-04-26 14:44 832K
20260426T12Z_MSC_RDPS_WindSpeed_IsbL-0900_RLatLon0.09_PT015H.grib2 2026-04-26 14:44 847K
20260426T12Z_MSC_RDPS_WindSpeed_IsbL-0925_RLatLon0.09_PT015H.grib2 2026-04-26 14:44 810K
20260426T12Z_MSC_RDPS_WindSpeed_IsbL-0950_RLatLon0.09_PT015H.grib2 2026-04-26 14:44 810K
20260426T12Z_MSC_RDPS_WindSpeed_IsbL-0970_RLatLon0.09_PT015H.grib2 2026-04-26 14:44 810K
20260426T12Z_MSC_RDPS_WindSpeed_IsbL-0985_RLatLon0.09_PT015H.grib2 2026-04-26 14:44 856K
20260426T12Z_MSC_RDPS_WindSpeed_IsbL-1000_RLatLon0.09_PT015H.grib2 2026-04-26 14:44 851K
20260426T12Z_MSC_RDPS_WindSpeed_IsbL-1015_RLatLon0.09_PT015H.grib2 2026-04-26 14:44 844K
20260426T12Z_MSC_RDPS_WindU_AGL-10m_RLatLon0.09_PT015H.grib2 2026-04-26 14:44 431K
20260426T12Z_MSC_RDPS_WindU_AGL-120m_RLatLon0.09_PT015H.grib2 2026-04-26 14:44 417K
20260426T12Z_MSC_RDPS_WindU_AGL-40m_RLatLon0.09_PT015H.grib2 2026-04-26 14:44 421K
20260426T12Z_MSC_RDPS_WindU_AGL-80m_RLatLon0.09_PT015H.grib2 2026-04-26 14:44 419K
20260426T12Z_MSC_RDPS_WindU_IsbL-0001_RLatLon0.09_PT015H.grib2 2026-04-26 14:44 291K
20260426T12Z_MSC_RDPS_WindU_IsbL-0005_RLatLon0.09_PT015H.grib2 2026-04-26 14:44 287K
20260426T12Z_MSC_RDPS_WindU_IsbL-0010_RLatLon0.09_PT015H.grib2 2026-04-26 14:44 299K
20260426T12Z_MSC_RDPS_WindU_IsbL-0020_RLatLon0.09_PT015H.grib2 2026-04-26 14:44 355K
20260426T12Z_MSC_RDPS_WindU_IsbL-0030_RLatLon0.09_PT015H.grib2 2026-04-26 14:44 353K
20260426T12Z_MSC_RDPS_WindU_IsbL-0050_RLatLon0.09_PT015H.grib2 2026-04-26 14:44 349K
20260426T12Z_MSC_RDPS_WindU_IsbL-0100_RLatLon0.09_PT015H.grib2 2026-04-26 14:44 432K
20260426T12Z_MSC_RDPS_WindU_IsbL-0150_RLatLon0.09_PT015H.grib2 2026-04-26 14:44 394K
20260426T12Z_MSC_RDPS_WindU_IsbL-0175_RLatLon0.09_PT015H.grib2 2026-04-26 14:44 420K
20260426T12Z_MSC_RDPS_WindU_IsbL-0200_RLatLon0.09_PT015H.grib2 2026-04-26 14:44 338K
20260426T12Z_MSC_RDPS_WindU_IsbL-0225_RLatLon0.09_PT015H.grib2 2026-04-26 14:44 345K
20260426T12Z_MSC_RDPS_WindU_IsbL-0250_RLatLon0.09_PT015H.grib2 2026-04-26 14:44 346K
20260426T12Z_MSC_RDPS_WindU_IsbL-0275_RLatLon0.09_PT015H.grib2 2026-04-26 14:44 360K
20260426T12Z_MSC_RDPS_WindU_IsbL-0300_RLatLon0.09_PT015H.grib2 2026-04-26 14:44 355K
20260426T12Z_MSC_RDPS_WindU_IsbL-0350_RLatLon0.09_PT015H.grib2 2026-04-26 14:44 363K
20260426T12Z_MSC_RDPS_WindU_IsbL-0400_RLatLon0.09_PT015H.grib2 2026-04-26 14:44 469K
20260426T12Z_MSC_RDPS_WindU_IsbL-0450_RLatLon0.09_PT015H.grib2 2026-04-26 14:44 468K
20260426T12Z_MSC_RDPS_WindU_IsbL-0500_RLatLon0.09_PT015H.grib2 2026-04-26 14:44 468K
20260426T12Z_MSC_RDPS_WindU_IsbL-0550_RLatLon0.09_PT015H.grib2 2026-04-26 14:44 470K
20260426T12Z_MSC_RDPS_WindU_IsbL-0600_RLatLon0.09_PT015H.grib2 2026-04-26 14:44 481K
20260426T12Z_MSC_RDPS_WindU_IsbL-0650_RLatLon0.09_PT015H.grib2 2026-04-26 14:44 500K
20260426T12Z_MSC_RDPS_WindU_IsbL-0700_RLatLon0.09_PT015H.grib2 2026-04-26 14:44 505K
20260426T12Z_MSC_RDPS_WindU_IsbL-0750_RLatLon0.09_PT015H.grib2 2026-04-26 14:44 531K
20260426T12Z_MSC_RDPS_WindU_IsbL-0800_RLatLon0.09_PT015H.grib2 2026-04-26 14:44 572K
20260426T12Z_MSC_RDPS_WindU_IsbL-0850_RLatLon0.09_PT015H.grib2 2026-04-26 14:44 621K
20260426T12Z_MSC_RDPS_WindU_IsbL-0875_RLatLon0.09_PT015H.grib2 2026-04-26 14:44 637K
20260426T12Z_MSC_RDPS_WindU_IsbL-0900_RLatLon0.09_PT015H.grib2 2026-04-26 14:44 647K
20260426T12Z_MSC_RDPS_WindU_IsbL-0925_RLatLon0.09_PT015H.grib2 2026-04-26 14:44 655K
20260426T12Z_MSC_RDPS_WindU_IsbL-0950_RLatLon0.09_PT015H.grib2 2026-04-26 14:44 651K
20260426T12Z_MSC_RDPS_WindU_IsbL-0970_RLatLon0.09_PT015H.grib2 2026-04-26 14:44 649K
20260426T12Z_MSC_RDPS_WindU_IsbL-0985_RLatLon0.09_PT015H.grib2 2026-04-26 14:44 648K
20260426T12Z_MSC_RDPS_WindU_IsbL-1000_RLatLon0.09_PT015H.grib2 2026-04-26 14:44 782K
20260426T12Z_MSC_RDPS_WindU_IsbL-1015_RLatLon0.09_PT015H.grib2 2026-04-26 14:44 777K
20260426T12Z_MSC_RDPS_WindV_AGL-10m_RLatLon0.09_PT015H.grib2 2026-04-26 14:44 428K
20260426T12Z_MSC_RDPS_WindV_AGL-120m_RLatLon0.09_PT015H.grib2 2026-04-26 14:44 416K
20260426T12Z_MSC_RDPS_WindV_AGL-40m_RLatLon0.09_PT015H.grib2 2026-04-26 14:44 419K
20260426T12Z_MSC_RDPS_WindV_AGL-80m_RLatLon0.09_PT015H.grib2 2026-04-26 14:44 417K
20260426T12Z_MSC_RDPS_WindV_IsbL-0001_RLatLon0.09_PT015H.grib2 2026-04-26 14:44 290K
20260426T12Z_MSC_RDPS_WindV_IsbL-0005_RLatLon0.09_PT015H.grib2 2026-04-26 14:44 331K
20260426T12Z_MSC_RDPS_WindV_IsbL-0010_RLatLon0.09_PT015H.grib2 2026-04-26 14:44 300K
20260426T12Z_MSC_RDPS_WindV_IsbL-0020_RLatLon0.09_PT015H.grib2 2026-04-26 14:44 318K
20260426T12Z_MSC_RDPS_WindV_IsbL-0030_RLatLon0.09_PT015H.grib2 2026-04-26 14:44 356K
20260426T12Z_MSC_RDPS_WindV_IsbL-0050_RLatLon0.09_PT015H.grib2 2026-04-26 14:44 347K
20260426T12Z_MSC_RDPS_WindV_IsbL-0100_RLatLon0.09_PT015H.grib2 2026-04-26 14:44 330K
20260426T12Z_MSC_RDPS_WindV_IsbL-0150_RLatLon0.09_PT015H.grib2 2026-04-26 14:44 392K
20260426T12Z_MSC_RDPS_WindV_IsbL-0175_RLatLon0.09_PT015H.grib2 2026-04-26 14:44 325K
20260426T12Z_MSC_RDPS_WindV_IsbL-0200_RLatLon0.09_PT015H.grib2 2026-04-26 14:44 338K
20260426T12Z_MSC_RDPS_WindV_IsbL-0225_RLatLon0.09_PT015H.grib2 2026-04-26 14:44 343K
20260426T12Z_MSC_RDPS_WindV_IsbL-0250_RLatLon0.09_PT015H.grib2 2026-04-26 14:44 345K
20260426T12Z_MSC_RDPS_WindV_IsbL-0275_RLatLon0.09_PT015H.grib2 2026-04-26 14:44 359K
20260426T12Z_MSC_RDPS_WindV_IsbL-0300_RLatLon0.09_PT015H.grib2 2026-04-26 14:44 352K
20260426T12Z_MSC_RDPS_WindV_IsbL-0350_RLatLon0.09_PT015H.grib2 2026-04-26 14:44 359K
20260426T12Z_MSC_RDPS_WindV_IsbL-0400_RLatLon0.09_PT015H.grib2 2026-04-26 14:44 361K
20260426T12Z_MSC_RDPS_WindV_IsbL-0450_RLatLon0.09_PT015H.grib2 2026-04-26 14:44 463K
20260426T12Z_MSC_RDPS_WindV_IsbL-0500_RLatLon0.09_PT015H.grib2 2026-04-26 14:44 462K
20260426T12Z_MSC_RDPS_WindV_IsbL-0550_RLatLon0.09_PT015H.grib2 2026-04-26 14:44 466K
20260426T12Z_MSC_RDPS_WindV_IsbL-0600_RLatLon0.09_PT015H.grib2 2026-04-26 14:44 475K
20260426T12Z_MSC_RDPS_WindV_IsbL-0650_RLatLon0.09_PT015H.grib2 2026-04-26 14:44 494K
20260426T12Z_MSC_RDPS_WindV_IsbL-0700_RLatLon0.09_PT015H.grib2 2026-04-26 14:44 513K
20260426T12Z_MSC_RDPS_WindV_IsbL-0750_RLatLon0.09_PT015H.grib2 2026-04-26 14:44 525K
20260426T12Z_MSC_RDPS_WindV_IsbL-0800_RLatLon0.09_PT015H.grib2 2026-04-26 14:44 567K
20260426T12Z_MSC_RDPS_WindV_IsbL-0850_RLatLon0.09_PT015H.grib2 2026-04-26 14:44 614K
20260426T12Z_MSC_RDPS_WindV_IsbL-0875_RLatLon0.09_PT015H.grib2 2026-04-26 14:44 631K
20260426T12Z_MSC_RDPS_WindV_IsbL-0900_RLatLon0.09_PT015H.grib2 2026-04-26 14:44 642K
20260426T12Z_MSC_RDPS_WindV_IsbL-0925_RLatLon0.09_PT015H.grib2 2026-04-26 14:44 649K
20260426T12Z_MSC_RDPS_WindV_IsbL-0950_RLatLon0.09_PT015H.grib2 2026-04-26 14:44 647K
20260426T12Z_MSC_RDPS_WindV_IsbL-0970_RLatLon0.09_PT015H.grib2 2026-04-26 14:44 646K
20260426T12Z_MSC_RDPS_WindV_IsbL-0985_RLatLon0.09_PT015H.grib2 2026-04-26 14:44 645K
20260426T12Z_MSC_RDPS_WindV_IsbL-1000_RLatLon0.09_PT015H.grib2 2026-04-26 14:44 642K
20260426T12Z_MSC_RDPS_WindV_IsbL-1015_RLatLon0.09_PT015H.grib2 2026-04-26 14:44 774K